This is the latest recevied weather packets stored in our database for station/object CQ0XVC-11. If no packets are shown the sender has not sent any weather packets the latest 10 day(s).
| Time | Temp. | Humidity | Pressure | Rain* | Wind** | Luminosity | Snow |
|---|---|---|---|---|---|---|---|
| 1777846288 | 10.56° C | 68% | 1002.7 hPa | 0 mm | - | - | - |
| 1777846255 | 10.56° C | 68% | 1002.7 hPa | 0 mm | - | - | - |
| 1777846002 | 10.56° C | 72% | 1002.8 hPa | 0 mm | - | - | - |
| 1777845952 | 10.56° C | 72% | 1002.8 hPa | 0 mm | - | - | - |
| 1777845688 | 10.56° C | 68% | 1002.8 hPa | 0 mm | - | - | - |
| 1777845651 | 10.56° C | 68% | 1002.8 hPa | 0 mm | - | - | - |
| 1777845392 | 11.11° C | 68% | 1002.9 hPa | 0 mm | - | - | - |
| 1777845348 | 11.11° C | 68% | 1002.9 hPa | 0 mm | - | - | - |
| 1777845077 | 11.11° C | 71% | 1002.7 hPa | 0 mm | - | - | - |
| 1777845047 | 11.11° C | 71% | 1002.7 hPa | 0 mm | - | - | - |
| 1777844744 | 11.11° C | 68% | 1002.8 hPa | 0 mm | - | - | - |
| 1777844499 | 11.11° C | 66% | 1002.8 hPa | 0 mm | - | - | - |
| 1777844442 | 11.11° C | 66% | 1002.8 hPa | 0 mm | - | - | - |
| 1777844186 | 11.11° C | 66% | 1002.8 hPa | 0 mm | - | - | - |
| 1777844139 | 11.11° C | 66% | 1002.8 hPa | 0 mm | - | - | - |
| 1777843894 | 11.11° C | 67% | 1002.7 hPa | 0 mm | - | - | - |
| 1777843838 | 11.11° C | 67% | 1002.7 hPa | 0 mm | - | - | - |
| 1777843567 | 11.11° C | 66% | 1002.4 hPa | 0 mm | - | - | - |
| 1777843535 | 11.11° C | 66% | 1002.4 hPa | 0 mm | - | - | - |
| 1777843296 | 11.67° C | 65% | 1002.5 hPa | 0 mm | - | - | - |
| 1777843233 | 11.67° C | 65% | 1002.5 hPa | 0 mm | - | - | - |
| 1777842962 | 11.67° C | 66% | 1002.4 hPa | 0 mm | - | - | - |
| 1777842931 | 11.67° C | 66% | 1002.4 hPa | 0 mm | - | - | - |
| 1777842680 | 11.67° C | 65% | 1002.3 hPa | 0 mm | - | - | - |
| 1777842629 | 11.67° C | 65% | 1002.3 hPa | 0 mm | - | - | - |
* Rain since midnight (hover to see other rain measurements)
** Current wind speed in m/s (hover to see current wind gust speed)